Temp
11 11 11 11 11 11 11 11 11 11 11 10 11 11 11 12 12 12 12 12 11 12 12 12 12 11 10 9 10 11 13 15 16 17 17 17 16 15 14 14 13 13 12 12 12
10 10 10 10 11 11 11 10 11 10 10 10 11 11 11 11 11 12 12 11 11 11 12 11 11 11 9 10 10 11 13 15 16 16 16 16 16 15 14 13 14 13 12 13 12
10 10 10 10 10 10 10 10 10 10 10 10 10 11 11 11 11 9 11 11 10 11 11 11 9 9 10 11 11 12 13 15 15 14 14 14 15 15 14 13 13 13 13 12 12
9 10 10 10 10 10 10 10 10 10 10 10 10 10 10 10 10 10 10 11 10 11 10 9 9 9 11 12 12 12 13 13 14 13 13 13 14 14 14 14 13 13 13 12 12
9 9 9 9 9 9 9 9 9 9 9 9 9 10 10 10 9 10 10 10 10 11 10 9 10 10 11 12 12 12 12 13 13 13 13 13 14 14 14 13 12 11 12 11 11
9 9 9 9 9 9 9 9 9 9 9 9 9 9 10 9 9 9 10 10 10 10 8 9 10 10 11 12 12 13 12 13 13 13 13 13 13 13 13 11 11 11 12 12 11
8 8 8 9 9 9 9 9 9 9 9 9 8 9 9 8 8 9 9 9 9 8 9 9 10 10 11 12 12 12 12 13 13 13 13 13 13 13 11 11 10 11 11 10 10
8 8 8 8 8 8 9 9 9 9 8 8 8 9 8 9 8 8 8 8 9 8 8 9 9 10 11 12 11 12 13 14 15 13 13 12 14 11 11 11 10 10 10 9 11
8 8 8 8 8 8 8 8 8 9 8 8 9 9 9 9 9 8 8 8 9 9 9 9 9 10 11 11 13 13 15 15 14 13 13 12 13 10 10 10 9 9 9 9 8
8 8 8 8 8 8 8 8 8 8 8 8 9 9 9 9 8 8 8 9 9 9 9 9 10 11 12 13 15 16 15 15 15 13 13 13 13 10 9 9 8 7 7 10 12
8 8 8 8 8 8 8 8 8 9 9 9 10 9 10 9 9 9 8 9 9 9 11 10 12 13 13 12 13 13 14 14 14 12 12 13 12 10 9 9 8 7 7 11 11
8 8 8 8 8 8 8 8 7 8 9 9 9 9 9 10 9 9 9 9 10 11 12 12 13 12 11 11 12 13 13 14 13 12 12 12 11 9 9 7 7 6 8 9 9
8 8 8 8 8 8 8 7 8 9 9 9 10 10 10 10 10 10 10 10 11 12 12 13 12 11 11 12 12 12 13 13 13 12 11 12 12 10 8 7 6 6 7 8 7
8 8 8 8 8 8 8 8 8 9 10 10 10 10 10 11 11 10 10 11 11 12 12 12 11 10 11 11 11 11 12 12 11 12 13 13 14 11 9 7 6 5 5 6 7
8 8 8 8 8 7 7 8 9 9 10 12 11 10 10 11 11 10 10 11 11 12 11 12 11 10 11 11 10 10 10 10 11 11 12 13 13 13 10 8 7 5 5 5 7
8 9 8 8 8 8 8 9 9 9 9 11 11 11 11 11 11 10 10 10 11 11 11 11 10 10 10 9 9 9 10 11 11 12 13 13 14 15 11 10 7 6 5 4 4
8 9 8 8 6 7 8 8 9 11 11 12 11 11 11 11 11 10 11 10 11 11 11 11 10 9 9 9 10 9 10 13 14 14 15 14 14 12 8 8 7 5 5 4 3
8 8 9 8 8 7 7 7 10 12 12 11 11 11 11 11 11 10 11 11 11 10 11 12 12 9 8 9 10 10 10 12 12 15 15 12 13 12 8 6 5 5 4 3 3
8 8 8 8 7 7 7 9 11 12 12 11 10 11 11 10 10 10 10 11 11 10 10 11 12 8 8 8 8 10 9 10 10 12 13 13 10 8 6 6 5 5 4 3 5
8 8 6 8 7 7 7 9 11 10 10 10 10 11 11 11 10 10 11 10 10 8 8 10 10 9 8 7 7 8 9 10 10 11 12 14 13 12 7 6 5 5 4 3 4
7 7 7 7 7 7 8 10 11 10 9 9 10 10 10 10 10 10 11 9 8 8 8 9 8 9 8 7 9 8 8 8 9 10 12 12 12 9 8 7 6 4 3 3 4
7 7 7 7 7 8 9 9 9 9 9 8 8 9 10 10 9 9 10 9 8 8 8 8 8 9 9 9 7 7 8 9 9 10 10 10 10 7 6 6 4 4 3 3 4
6 7 6 7 7 8 9 9 9 8 8 8 8 8 9 9 8 8 9 8 7 7 7 6 7 8 9 8 6 6 7 7 7 7 7 9 10 5 5 5 4 4 3 2 4
5 7 6 6 6 6 7 7 8 8 8 8 8 8 7 8 8 8 8 7 6 6 6 5 6 7 9 9 8 7 6 7 6 6 8 9 9 6 6 5 4 4 3 2 1
4 5 5 6 6 5 5 6 7 8 7 7 7 7 7 7 7 7 7 7 6 5 5 4 5 6 7 7 7 7 7 7 7 6 6 7 7 7 7 6 5 4 3 2 1
4 4 4 4 4 4 5 6 6 7 7 7 7 7 7 7 7 7 7 7 7 6 5 5 4 5 5 6 6 6 6 6 6 6 6 6 6 6 6 5 5 4 3 2 1
4 4 4 4 5 5 6 5 5 5 5 6 6 7 7 7 7 7 7 6 6 6 6 5 5 5 6 6 7 7 7 6 6 6 6 6 6 6 6 5 4 3 2 1 1
Height
3159 3157 3155 3153 3152 3151 3150 3149 3148 3147 3146 3145 3144 3142 3141 3140 3139 3138 3138 3139 3138 3138 3139 3139 3141 3145 3149 3154 3159 3163 3164 3160 3161 3161 3162 3164 3166 3168 3170 3172 3172 3174 3174 3172 3169
3153 3151 3149 3148 3147 3146 3145 3145 3144 3143 3142 3142 3140 3139 3138 3137 3136 3135 3136 3136 3136 3136 3137 3138 3140 3143 3149 3153 3157 3158 3159 3158 3159 3158 3160 3163 3164 3166 3168 3170 3171 3172 3173 3170 3168
3148 3146 3144 3143 3142 3141 3141 3140 3140 3140 3139 3138 3137 3136 3136 3135 3135 3134 3132 3133 3134 3134 3135 3137 3140 3143 3149 3153 3155 3156 3155 3157 3158 3158 3159 3160 3162 3164 3165 3166 3168 3170 3172 3165 3167
3143 3141 3140 3139 3138 3137 3137 3137 3137 3136 3136 3136 3134 3134 3133 3134 3139 3130 3131 3132 3132 3133 3134 3140 3143 3145 3149 3151 3153 3153 3154 3155 3155 3156 3156 3156 3159 3160 3162 3164 3165 3166 3168 3166 3162
3140 3138 3136 3135 3134 3134 3134 3133 3133 3133 3133 3132 3132 3131 3131 3133 3134 3130 3130 3130 3131 3131 3133 3139 3143 3146 3149 3150 3151 3151 3152 3152 3152 3153 3153 3154 3155 3157 3159 3157 3155 3157 3159 3161 3161
3138 3135 3133 3132 3131 3131 3130 3130 3130 3130 3130 3130 3129 3129 3130 3132 3129 3128 3128 3129 3129 3130 3133 3139 3143 3146 3147 3148 3149 3149 3149 3150 3150 3151 3151 3151 3153 3154 3155 3152 3153 3155 3157 3160 3160
3135 3133 3131 3129 3128 3128 3127 3127 3127 3127 3128 3128 3128 3128 3129 3131 3129 3127 3128 3129 3130 3134 3137 3138 3141 3143 3145 3146 3146 3146 3147 3146 3146 3148 3149 3149 3151 3152 3149 3152 3151 3153 3154 3155 3156
3134 3131 3129 3127 3126 3125 3125 3125 3126 3125 3127 3127 3129 3129 3129 3128 3128 3127 3128 3131 3131 3132 3135 3137 3137 3141 3143 3144 3144 3144 3144 3142 3141 3144 3146 3147 3146 3145 3148 3150 3149 3150 3151 3152 3148
3132 3130 3128 3126 3125 3124 3124 3124 3124 3124 3126 3127 3129 3129 3131 3128 3127 3128 3130 3133 3133 3133 3135 3135 3137 3140 3142 3142 3141 3140 3136 3138 3139 3142 3143 3144 3143 3144 3146 3147 3147 3148 3149 3150 3143
3131 3129 3126 3125 3124 3123 3123 3123 3123 3124 3125 3127 3129 3131 3129 3130 3129 3129 3130 3134 3135 3135 3137 3136 3138 3139 3139 3138 3134 3131 3133 3135 3137 3139 3141 3141 3142 3143 3144 3145 3144 3142 3142 3139 3139
3130 3127 3125 3124 3123 3123 3123 3124 3127 3128 3125 3126 3130 3129 3129 3130 3128 3131 3131 3134 3136 3137 3138 3138 3137 3135 3133 3136 3135 3135 3136 3134 3136 3139 3139 3138 3138 3142 3142 3143 3141 3139 3136 3135 3136
3128 3126 3124 3123 3122 3122 3122 3123 3125 3124 3126 3126 3127 3128 3128 3130 3131 3132 3132 3136 3136 3135 3137 3138 3135 3136 3139 3140 3138 3137 3136 3134 3134 3138 3139 3136 3138 3141 3140 3138 3138 3137 3133 3132 3133
3126 3124 3123 3122 3121 3121 3121 3122 3123 3124 3125 3126 3127 3128 3128 3130 3131 3132 3133 3134 3135 3134 3136 3133 3133 3137 3139 3138 3138 3135 3134 3133 3133 3133 3135 3134 3133 3135 3137 3135 3133 3132 3131 3131 3131
3124 3122 3121 3121 3122 3121 3122 3122 3123 3124 3123 3125 3126 3127 3128 3129 3131 3131 3132 3135 3134 3133 3132 3133 3134 3137 3138 3137 3137 3135 3133 3132 3133 3133 3129 3124 3123 3124 3130 3134 3134 3131 3131 3129 3129
3122 3120 3119 3119 3119 3120 3123 3122 3122 3122 3121 3120 3122 3123 3126 3128 3128 3129 3130 3132 3131 3132 3134 3132 3134 3135 3135 3134 3134 3134 3132 3131 3130 3129 3128 3123 3125 3121 3125 3130 3132 3132 3130 3127 3126
3120 3118 3117 3117 3117 3118 3119 3121 3123 3125 3122 3118 3119 3122 3124 3125 3126 3126 3128 3130 3129 3130 3131 3131 3130 3133 3133 3132 3132 3131 3130 3128 3126 3124 3120 3117 3116 3111 3117 3121 3125 3129 3129 3127 3124
3116 3115 3114 3115 3118 3116 3118 3121 3125 3115 3116 3114 3117 3119 3121 3122 3124 3125 3126 3127 3127 3128 3126 3126 3127 3128 3128 3130 3129 3129 3127 3119 3113 3108 3103 3105 3110 3114 3118 3121 3123 3125 3126 3124 3122
3112 3111 3111 3112 3113 3115 3117 3121 3116 3110 3109 3109 3115 3117 3119 3120 3121 3122 3123 3123 3123 3124 3122 3121 3120 3123 3125 3127 3126 3126 3126 3120 3109 3100 3099 3108 3109 3109 3115 3116 3119 3121 3122 3120 3117
3108 3108 3108 3109 3111 3113 3116 3116 3110 3107 3107 3110 3114 3115 3115 3117 3119 3118 3119 3119 3119 3120 3123 3120 3117 3118 3121 3123 3126 3124 3123 3121 3117 3112 3107 3102 3107 3108 3108 3113 3117 3120 3119 3117 3113
3105 3105 3107 3106 3109 3111 3113 3109 3107 3107 3108 3109 3111 3111 3111 3111 3114 3115 3115 3115 3117 3118 3119 3119 3119 3118 3119 3120 3121 3121 3121 3119 3115 3109 3102 3096 3095 3093 3103 3110 3114 3117 3117 3113 3111
3103 3106 3103 3104 3107 3108 3108 3106 3106 3104 3107 3109 3109 3109 3109 3110 3110 3111 3112 3112 3115 3115 3116 3117 3119 3116 3118 3117 3116 3117 3116 3116 3115 3110 3102 3099 3097 3101 3103 3108 3110 3112 3112 3110 3108
3103 3106 3101 3102 3106 3105 3104 3104 3103 3103 3105 3106 3106 3106 3106 3107 3108 3109 3109 3111 3111 3113 3114 3114 3114 3112 3111 3111 3112 3113 3112 3111 3109 3106 3104 3105 3101 3101 3103 3105 3106 3108 3107 3106 3105
3101 3103 3098 3099 3102 3100 3100 3099 3100 3102 3102 3102 3103 3103 3104 3105 3107 3107 3107 3109 3109 3111 3112 3112 3111 3109 3107 3109 3109 3108 3108 3109 3110 3109 3105 3103 3099 3098 3100 3101 3103 3103 3104 3102 3100
3102 3103 3101 3099 3098 3096 3096 3096 3095 3096 3098 3098 3099 3100 3101 3102 3103 3104 3105 3105 3106 3108 3107 3108 3108 3107 3103 3097 3103 3104 3105 3106 3106 3105 3100 3097 3096 3096 3098 3099 3100 3100 3099 3098 3096
3104 3102 3098 3097 3097 3093 3094 3095 3094 3094 3093 3095 3096 3097 3098 3099 3100 3101 3102 3102 3103 3103 3104 3105 3103 3104 3101 3100 3100 3099 3100 3099 3098 3099 3098 3096 3094 3094 3094 3095 3096 3097 3096 3095 3093
3100 3097 3095 3093 3091 3090 3091 3091 3091 3091 3091 3092 3093 3093 3094 3095 3096 3096 3096 3098 3098 3100 3100 3101 3100 3100 3097 3096 3095 3093 3094 3093 3092 3092 3091 3091 3089 3090 3090 3091 3091 3091 3091 3090 3088
3097 3094 3091 3090 3091 3090 3089 3088 3088 3088 3088 3089 3090 3089 3090 3091 3091 3092 3093 3093 3094 3096 3096 3096 3096 3096 3090 3090 3087 3084 3085 3086 3085 3085 3085 3084 3084 3084 3083 3084 3085 3086 3086 3084 3083
Wind_Speed
28 26 24 23 21 21 19 18 17 16 17 15 13 13 13 14 13 12 12 12 9 10 11 11 14 15 15 16 17 16 23 25 20 20 16 12 15 13 13 13 10 10 7 14 16
25 24 23 21 20 20 18 18 17 16 15 14 12 12 11 12 11 12 10 9 7 8 8 9 10 12 15 16 18 18 20 20 13 12 11 12 13 12 15 11 12 9 10 17 19
21 21 20 19 19 18 18 17 15 15 14 12 11 11 11 9 7 8 7 8 7 6 7 8 9 13 15 13 18 16 22 13 15 14 13 13 14 12 14 11 13 12 11 20 23
18 18 18 17 17 17 16 15 14 13 13 12 10 10 9 4 3 13 6 6 7 6 9 12 13 15 12 15 15 19 15 19 17 13 13 14 13 15 13 14 15 17 15 13 21
15 15 15 15 15 15 15 14 13 13 11 10 9 9 6 6 5 9 7 7 7 6 12 11 14 13 11 12 12 18 16 13 13 13 10 10 11 11 10 12 17 17 15 15 17
14 12 12 12 12 12 12 11 12 11 8 7 7 6 4 5 18 8 7 6 5 7 8 12 10 12 11 12 16 5 12 12 11 11 11 10 8 9 7 8 10 9 8 13 11
13 12 10 9 9 9 10 10 9 8 6 5 4 4 11 4 11 7 5 6 7 9 8 13 11 12 5 10 12 14 12 12 14 12 12 10 13 12 10 5 3 2 7 9 8
13 12 10 8 8 7 7 8 7 6 6 7 9 8 6 4 8 8 9 8 9 8 10 8 9 11 9 9 8 11 12 15 14 10 12 12 9 7 4 3 4 4 3 5 15
13 11 9 8 7 6 6 5 5 6 9 9 12 7 4 3 4 12 12 6 8 10 8 10 8 7 6 8 10 9 17 10 9 6 9 14 11 2 2 3 4 3 6 6 13
12 10 9 7 6 5 4 3 2 6 11 11 14 8 8 2 8 13 13 11 9 7 6 8 5 6 8 11 14 12 8 7 9 5 6 11 8 1 1 3 4 4 5 16 23
12 10 8 7 5 3 2 7 7 1 11 14 8 1 8 8 9 14 14 13 8 7 8 6 9 7 2 2 4 1 4 6 6 6 6 6 5 5 4 4 4 5 6 9 10
12 10 7 6 3 2 5 9 4 8 6 9 12 11 11 9 11 13 14 10 9 8 8 7 10 3 3 5 6 7 11 13 6 10 8 9 11 7 7 8 7 5 3 6 7
12 10 8 5 3 4 7 5 9 10 8 10 11 9 9 12 11 12 14 9 7 9 9 8 6 4 4 6 8 11 11 16 11 6 11 14 16 15 11 8 6 3 4 5 5
13 10 8 6 4 3 5 6 10 14 8 14 13 10 12 8 12 12 11 9 8 9 11 8 7 4 6 8 8 12 12 11 13 16 21 21 21 26 17 10 6 6 4 2 5
13 9 9 8 6 6 10 9 13 16 5 14 14 11 13 13 8 13 13 10 11 8 8 6 8 7 8 9 11 13 12 13 14 17 19 22 16 18 18 14 7 4 3 2 9
12 9 9 9 8 7 9 11 14 11 5 10 9 13 12 13 9 6 11 12 10 9 12 12 10 10 11 12 13 11 11 12 14 16 18 21 23 20 23 21 12 6 2 2 4
12 10 9 10 6 10 11 12 10 24 5 10 13 13 14 11 12 12 12 14 15 13 18 16 14 12 15 12 11 9 12 19 15 16 15 6 12 3 11 12 11 7 3 2 3
12 10 10 12 13 10 11 9 19 21 17 8 10 11 14 13 14 12 15 17 16 18 19 16 12 13 7 6 8 9 10 16 17 13 1 9 11 6 11 9 7 5 2 3 9
11 10 10 13 16 13 10 17 23 16 13 8 10 11 14 14 13 12 17 19 10 10 16 17 15 10 7 7 6 5 11 8 12 21 18 26 4 10 13 9 7 6 3 5 14
10 7 8 12 19 16 13 21 14 11 6 9 15 11 14 13 13 15 15 13 15 12 10 8 15 10 9 8 11 11 11 10 15 11 17 18 21 5 16 12 9 6 5 5 8
8 1 14 13 20 16 19 18 15 13 11 13 15 17 13 15 13 16 14 7 10 9 8 9 10 9 9 12 13 12 10 13 14 16 12 12 6 9 9 11 12 9 7 5 8
4 4 12 11 16 18 20 16 19 15 12 15 15 15 15 13 14 14 15 13 9 10 7 9 8 16 16 11 12 14 17 15 17 16 14 17 20 2 9 8 8 8 9 8 11
6 5 12 10 13 17 19 20 17 16 15 14 15 14 14 14 14 14 13 11 11 11 9 10 8 14 19 17 14 12 15 14 15 16 22 18 11 8 6 6 9 10 11 10 16
9 4 4 6 12 14 13 13 13 15 15 15 15 14 14 14 14 13 14 13 11 12 17 14 13 16 21 21 9 11 15 17 18 21 21 22 19 13 10 11 12 13 13 11 11
8 7 7 4 9 12 14 15 15 15 13 13 15 16 15 16 14 16 14 14 12 15 15 14 16 18 22 22 22 21 21 22 23 24 25 24 21 18 15 14 14 16 16 15 14
7 6 8 11 11 11 12 14 14 14 11 11 14 15 16 20 18 17 16 16 17 15 15 16 19 17 23 22 23 25 25 26 26 25 27 25 27 22 22 21 17 18 17 16 15
12 9 9 6 8 8 6 9 10 11 14 15 17 14 17 17 18 18 18 16 16 15 18 17 21 19 25 23 25 26 22 26 27 27 25 27 25 20 18 18 16 16 16 15 13
Wind_Direction
295 294 292 290 288 288 290 291 287 284 282 285 284 286 290 291 291 279 268 267 261 253 245 224 215 204 197 203 206 217 230 241 243 247 245 242 241 246 239 228 256 241 247 242 269
293 291 289 287 285 284 284 282 282 282 280 282 286 287 290 292 287 271 262 254 236 241 232 210 206 200 199 207 215 215 228 232 239 250 238 238 242 239 237 248 238 239 254 272 280
295 291 288 285 281 278 276 276 276 275 277 280 281 284 285 289 306 250 248 239 222 228 211 190 188 194 201 207 219 226 231 233 248 244 244 242 236 243 243 263 234 252 251 277 284
301 293 290 285 281 278 276 274 272 272 274 276 279 280 279 233 84 259 229 226 223 205 173 187 193 194 202 224 222 234 242 244 243 256 258 249 244 240 250 255 254 248 251 249 270
307 300 291 287 284 279 278 274 265 262 267 277 281 278 269 198 255 236 236 236 220 197 173 182 189 192 215 227 229 234 241 250 255 241 247 242 238 241 237 235 232 249 239 247 251
317 307 297 291 285 281 277 267 257 259 266 268 268 270 203 150 239 226 225 206 185 155 171 181 193 202 235 234 226 244 246 242 241 241 239 237 238 231 237 281 269 272 227 236 225
325 318 308 298 286 278 273 264 257 255 245 223 215 165 159 187 217 218 203 143 150 161 187 201 200 208 230 228 233 237 251 245 237 239 233 240 234 238 238 297 262 197 207 206 203
327 323 315 301 288 283 270 259 254 237 211 181 167 145 115 210 203 195 156 148 136 147 161 188 193 197 226 233 239 237 245 248 220 224 231 218 203 182 238 230 283 142 184 193 251
331 323 315 301 289 283 275 267 248 212 185 178 170 156 194 238 202 182 172 157 134 131 141 148 171 190 232 223 228 230 238 218 195 221 218 213 195 151 178 187 185 157 149 151 210
332 326 315 304 290 277 273 279 239 190 176 171 174 166 186 190 176 182 175 159 149 160 172 160 168 184 185 215 254 191 225 222 251 189 225 215 193 181 148 182 171 161 158 225 265
330 326 319 309 291 267 221 114 80 267 184 155 211 126 169 173 161 160 162 157 167 166 180 188 214 214 135 278 5 57 279 290 220 256 235 229 200 228 174 168 147 131 229 273 259
324 321 311 305 291 217 179 165 250 188 187 219 197 195 187 169 158 172 167 161 179 206 179 208 216 157 225 259 276 268 269 265 236 252 243 214 209 202 175 156 146 140 251 283 281
323 313 303 293 263 199 178 170 173 171 154 182 171 172 184 157 170 180 183 185 215 213 219 246 136 202 253 262 273 266 275 273 279 238 258 252 216 193 177 152 142 166 259 256 271
324 302 294 276 258 198 181 183 172 180 200 180 181 185 174 173 187 188 197 211 217 229 215 244 222 249 271 272 275 294 284 271 262 266 262 229 257 183 179 170 142 121 114 262 248
320 301 282 258 234 169 225 199 182 195 283 169 177 201 192 194 192 206 206 208 228 229 220 229 217 245 269 275 294 283 281 274 265 260 260 245 241 207 183 182 174 138 103 294 259
309 295 266 253 233 222 202 194 186 219 198 188 191 194 192 206 214 201 208 216 236 235 243 271 224 263 261 277 280 269 286 273 258 250 245 244 245 217 198 196 175 164 136 68 343
299 287 262 237 183 209 193 180 210 234 178 186 198 207 212 210 217 216 220 222 234 223 231 226 246 239 260 273 258 265 273 262 224 219 235 207 192 102 146 163 175 170 169 334 3
297 279 256 228 207 194 186 200 239 233 221 178 201 207 216 225 232 229 231 245 243 253 268 256 210 210 233 224 258 256 273 286 305 296 92 172 233 160 168 163 165 168 176 298 297
295 276 256 223 203 201 201 220 217 247 239 206 211 227 229 235 243 240 241 247 260 228 249 268 253 201 215 243 244 229 251 273 289 276 270 279 132 155 178 177 203 221 250 284 292
308 282 253 227 204 209 219 233 254 240 211 207 228 243 245 229 230 232 244 240 238 240 238 254 256 230 244 243 246 233 272 261 231 263 269 263 261 189 180 193 206 229 253 276 293
323 289 247 227 210 217 227 237 247 247 239 238 246 253 247 256 243 249 239 221 219 229 218 235 241 222 226 243 238 228 247 245 273 280 297 290 297 91 174 201 207 227 245 260 280
10 282 264 250 222 230 238 240 253 240 256 243 250 250 249 246 245 247 245 242 214 216 225 226 239 251 247 230 230 259 255 260 257 264 244 270 279 211 186 204 222 227 253 253 279
352 268 296 238 232 240 245 246 247 246 246 251 247 243 240 241 247 247 243 239 221 212 227 241 241 254 245 241 249 244 241 241 251 262 266 279 285 177 190 241 238 236 237 256 281
14 313 292 271 253 263 274 252 255 253 247 248 243 234 232 238 241 251 243 237 225 225 228 227 245 250 274 292 298 248 244 253 249 255 264 259 260 219 247 265 263 254 253 252 267
357 307 309 252 247 269 260 262 262 256 248 240 238 232 237 244 245 246 249 241 234 233 234 231 249 258 263 268 271 269 263 258 248 253 259 270 275 269 264 263 269 260 253 254 259
340 335 297 302 288 277 267 256 256 249 253 242 246 244 246 247 247 260 251 240 242 242 238 241 258 268 271 268 268 266 264 261 258 259 259 263 266 264 264 264 259 256 251 251 257
336 325 325 310 308 299 279 245 245 255 257 257 253 258 251 261 255 253 253 249 246 242 244 244 255 264 269 273 269 267 260 263 262 259 256 258 264 269 263 250 254 255 256 253 252